Regional Weather Roundup
Issued by NWS Goodland, KS

Home | Current Version | Previous Version | Text Only | Print | Product List | Glossary Off
Versions: 1 2 3 4 5 6 7 8 9 10 11 12 13 14 15 16 17 18 19 20 21 22 23 24 25 26 27 28 29 30 31 32 33 34 35 36 37 38 39 40 41 42 43 44 45 46 47 48 49 50

000
ASUS43 KGLD 291659
RWRGLD

GOODLAND FORECAST AREA HOURLY WEATHER ROUNDUP
NATIONAL WEATHER SERVICE GOODLAND KS
1100 AM MDT FRI JUL 29 2016

...OFFICIAL OBSERVATIONS...

CITY           SKY/WX    TMP DP  RH WIND       PRES   REMARKS
GOODLAND KS    LGT RAIN  69  63  81 CALM      30.17S
HILL CITY KS   PTSUNNY   79  66  64 VRB3      30.11S
IMPERIAL NEB   MOSUNNY   73  59  61 S6        30.15S
MCCOOK NEB     PTSUNNY   76  62  62 SE6       30.13S
AKRON CO       PTSUNNY   69  54  58 SE17      30.20R
BURLINGTON CO  PTSUNNY   70  60  70 E9        30.20R
LIMON CO       PTSUNNY   72  57  59 SE9       30.22R
$$

...UNOFFICIAL OBSERVATIONS...

CITY           SKY/WX    TMP DP  RH WIND       PRES   REMARKS
LENORA KS        N/A     80  32  17 MISG        N/A
NORTON KS      PTSUNNY   79  61  53 N3        30.10S
SHARON SPRINGS   N/A     70  65  84 NE7         N/A
KIT CARSON CO    N/A     71  62  74 MISG        N/A
YUMA CO          N/A     73  60  64 S8G16       N/A
$$



USA.gov is the U.S. government's official web portal to all federal, state and local government web resources and services.